Change the Weather History Date:

Saturday, March 9, 2013

  Actual Average Record
Temperature  
Mean Temperature 36 °F -  
Max Temperature 44 °F 50 °F 73 °F (1955)
Min Temperature 28 °F 21 °F 1 °F (2002)
Degree Days  
Heating Degree Days 29    
Moisture  
Dew Point 33 °F    
Average Humidity 91    
Maximum Humidity 96    
Minimum Humidity 80    
Precipitation  
Precipitation 0.13 in - - ()
Sea Level Pressure  
Sea Level Pressure 29.72 in    
Wind  
Wind Speed 20 mph (North)    
Max Wind Speed 38 mph    
Max Gust Speed 44 mph    
Visibility 3 miles    
Events Fog , Rain , Snow , Thunderstorm    
Averages and records for this station are not official NWS values.
T = Trace of Precipitation, MM = Missing Value Source: NWS Daily Summary

Daily Weather History Graph

Daily Weather History Graph

Search for Another Location

Airport or City:

Trip Planner

Search our weather history database for the weather conditions in past years. The results will help you decide how hot, cold, wet, or windy it might be!

Date:

Astronomy

Mar. 09, 2013 Rise Set
Actual Time 6:08 AM MST 5:47 PM MST
Civil Twilight 5:40 AM MST 6:14 PM MST
Nautical Twilight 5:08 AM MST 6:46 PM MST
Astronomical Twilight 4:36 AM MST 7:19 PM MST
Moon 4:34 AM MST (3/9) 3:51 PM MST (3/9)
Length of Visible Light 12h 34m
Length of Day
11h 39m
Waning Crescent, 5% of the Moon is Illuminated
Mar 9
Waning Crescent
Mar 11
New
Mar 19
First Quarter
Mar 27
Full
Apr 2
Last Quarter

Hourly Weather History & Observations

Time (MST) Temp. Windchill Dew Point Humidity Pressure Visibility Wind Dir Wind Speed Gust Speed Precip Events Conditions
12:15 AM 42.8 °F 38.6 °F 40.8 °F 93% 29.64 in 2.0 mi NE 6.9 mph - N/A   Light Drizzle
12:35 AM 42.8 °F 37.0 °F 41.0 °F 93% 29.64 in 2.5 mi North 10.4 mph - N/A   Overcast
12:55 AM 42.6 °F 36.8 °F 41.0 °F 94% 29.63 in 2.5 mi NNE 10.4 mph - N/A   Overcast
1:15 AM 42.8 °F 37.5 °F 41.2 °F 94% 29.64 in 2.5 mi NE 9.2 mph - N/A   Overcast
1:35 AM 43.2 °F 37.4 °F 41.9 °F 95% 29.62 in 1.2 mi NE 10.4 mph - N/A Thunderstorm Overcast
1:55 AM 43.2 °F 39.0 °F 41.9 °F 95% 29.61 in 1.0 mi NNE 6.9 mph - N/A   Overcast
2:15 AM 43.7 °F 39.1 °F 42.1 °F 94% 29.59 in 0.5 mi NNE 8.1 mph - N/A Fog , Thunderstorm Fog
2:35 AM 43.3 °F 40.7 °F 42.1 °F 95% 29.57 in 0.5 mi NE 4.6 mph - N/A Rain , Thunderstorm Light Thunderstorms and Rain
2:55 AM 43.9 °F 39.3 °F 42.8 °F 96% 29.55 in 0.2 mi North 8.1 mph - N/A Fog , Thunderstorm Fog
3:15 AM 44.1 °F 38.6 °F 42.8 °F 95% 29.57 in 0.2 mi WNW 10.4 mph - N/A Fog Fog
3:35 AM 41.9 °F 32.8 °F 40.5 °F 95% 29.57 in 2.5 mi NNW 20.7 mph 24.2 mph N/A   Overcast
3:55 AM 40.1 °F 29.2 °F 38.8 °F 95% 29.57 in 2.5 mi North 26.5 mph 32.2 mph N/A Rain Light Rain
4:15 AM 37.6 °F 25.4 °F 36.3 °F 95% 29.58 in 3.0 mi North 28.8 mph 33.4 mph N/A Rain Light Rain
4:35 AM 36.7 °F 24.2 °F 35.2 °F 95% 29.57 in 3.0 mi North 28.8 mph 35.7 mph N/A Rain Rain
4:55 AM 36.5 °F 24.0 °F 35.1 °F 95% 29.57 in 4.0 mi North 28.8 mph 35.7 mph N/A   Overcast
5:15 AM 37.0 °F 24.7 °F 35.6 °F 95% 29.57 in 4.0 mi North 28.8 mph 34.5 mph N/A   Light Drizzle
5:35 AM 38.3 °F 26.6 °F 36.5 °F 93% 29.57 in 5.0 mi NNE 27.6 mph 34.5 mph N/A Rain Light Rain
5:55 AM 38.7 °F 27.5 °F 36.5 °F 92% 29.56 in 7.0 mi NNE 25.3 mph 33.4 mph N/A   Overcast
6:15 AM 38.3 °F 27.6 °F 36.5 °F 93% 29.57 in 5.0 mi North 23.0 mph 31.1 mph N/A   Overcast
6:35 AM 37.4 °F 25.4 °F 35.4 °F 93% 29.58 in 4.0 mi North 27.6 mph 35.7 mph N/A   Overcast
6:55 AM 37.0 °F 24.9 °F 34.9 °F 92% 29.58 in 3.0 mi North 27.6 mph 33.4 mph N/A   Light Drizzle
7:15 AM 37.2 °F 24.5 °F 34.9 °F 91% 29.58 in 2.0 mi North 31.1 mph 34.5 mph 0.01 in Rain Light Rain
7:35 AM 37.0 °F 25.6 °F 34.7 °F 91% 29.59 in 3.0 mi North 24.2 mph 34.5 mph 0.01 in Rain Light Rain
7:55 AM 37.6 °F 25.9 °F 35.1 °F 91% 29.59 in 5.0 mi North 26.5 mph 32.2 mph 0.01 in   Light Drizzle
8:15 AM 37.4 °F 28.2 °F 34.3 °F 89% 29.62 in 10.0 mi North 16.1 mph 26.5 mph N/A   Overcast
8:35 AM 35.8 °F 24.5 °F 32.7 °F 89% 29.63 in 10.0 mi North 21.9 mph 27.6 mph N/A   Overcast
8:55 AM 34.3 °F 22.9 °F 31.6 °F 90% 29.63 in 10.0 mi North 20.7 mph 28.8 mph N/A   Light Drizzle
9:15 AM 33.8 °F 20.5 °F 31.1 °F 90% 29.63 in 5.0 mi North 27.6 mph - N/A Snow Light Snow
9:35 AM 33.4 °F 19.8 °F 30.6 °F 89% 29.63 in 1.5 mi North 28.8 mph 34.5 mph 0.01 in Snow Light Snow
9:55 AM 32.4 °F 18.6 °F 29.8 °F 90% 29.65 in 0.8 mi North 27.6 mph 34.5 mph 0.02 in Snow Light Snow
10:15 AM 32.2 °F 19.7 °F 29.8 °F 91% 29.66 in 0.5 mi North 21.9 mph 31.1 mph N/A Snow Snow
10:35 AM 32.0 °F 19.8 °F 29.8 °F 92% 29.67 in 0.2 mi North 20.7 mph 26.5 mph N/A Snow Snow
10:55 AM 32.0 °F 19.8 °F 29.8 °F 92% 29.68 in 0.8 mi North 20.7 mph 28.8 mph N/A Snow Light Snow
11:15 AM 31.6 °F 19.3 °F 29.3 °F 91% 29.68 in 0.2 mi North 20.7 mph 27.6 mph 0.01 in Snow Snow
11:35 AM 30.9 °F 17.2 °F 28.6 °F 91% 29.68 in 0.2 mi North 25.3 mph 35.7 mph 0.02 in Snow Heavy Snow
11:55 AM 30.6 °F 16.7 °F 28.4 °F 92% 29.68 in 0.2 mi North 25.3 mph 32.2 mph 0.02 in Snow Heavy Snow
12:15 PM 30.4 °F 16.5 °F 28.4 °F 92% 29.69 in 0.2 mi North 25.3 mph 31.1 mph N/A Snow Snow
12:35 PM 30.6 °F 17.0 °F 28.4 °F 92% 29.68 in - North 24.2 mph - N/A   Overcast
12:55 PM 30.9 °F 17.2 °F 29.1 °F 93% 29.68 in - North 25.3 mph 31.1 mph N/A   Overcast
1:15 PM 30.9 °F 15.5 °F 29.1 °F 93% 29.67 in - North 33.4 mph 39.1 mph N/A   Overcast
1:35 PM 31.1 °F 16.2 °F 29.1 °F 92% 29.69 in - North 31.1 mph 35.7 mph 0.01 in   Overcast
1:55 PM 31.1 °F 16.9 °F 29.3 °F 93% 29.70 in - North 27.6 mph 36.8 mph 0.01 in   Overcast
2:15 PM 31.5 °F 17.1 °F 29.3 °F 92% 29.71 in - North 28.8 mph 36.8 mph N/A   Overcast
2:35 PM 31.6 °F 17.9 °F 29.7 °F 92% 29.72 in - North 26.5 mph 31.1 mph N/A   Overcast
2:55 PM 32.0 °F 19.2 °F 30.2 °F 93% 29.73 in - North 23.0 mph - N/A   Overcast
3:15 PM 32.5 °F 19.6 °F 31.1 °F 94% 29.73 in - North 24.2 mph 32.2 mph N/A   Overcast
3:35 PM 33.1 °F 19.1 °F 31.5 °F 94% 29.73 in - North 29.9 mph 35.7 mph 0.01 in   Overcast
3:55 PM 33.1 °F 19.8 °F 31.6 °F 94% 29.74 in - North 26.5 mph 34.5 mph 0.02 in   Overcast
4:15 PM 33.4 °F 20.6 °F 31.8 °F 94% 29.75 in - North 25.3 mph 33.4 mph 0.01 in   Overcast
4:35 PM 33.8 °F 21.6 °F 32.0 °F 93% 29.76 in - North 23.0 mph 29.9 mph 0.02 in   Overcast
4:55 PM 33.8 °F 21.0 °F 32.0 °F 93% 29.77 in 1.5 mi North 25.3 mph - 0.02 in Snow Light Snow
5:15 PM 34.0 °F 20.3 °F 32.0 °F 92% 29.77 in 1.0 mi North 29.9 mph 38.0 mph 0.01 in Snow Light Snow
5:35 PM 33.8 °F 19.6 °F 32.0 °F 93% 29.79 in 0.5 mi North 32.2 mph 41.4 mph 0.02 in Snow Light Snow
5:55 PM 33.8 °F 19.4 °F 32.0 °F 93% 29.79 in 1.2 mi North 33.4 mph 39.1 mph 0.02 in Snow Light Snow
6:15 PM 33.8 °F 20.5 °F 31.5 °F 91% 29.80 in 2.0 mi North 27.6 mph 39.1 mph 0.01 in Snow Light Snow
6:35 PM 34.0 °F 20.5 °F 31.1 °F 89% 29.82 in 2.5 mi North 28.8 mph 39.1 mph 0.01 in Snow Light Snow
6:55 PM 34.2 °F 21.0 °F 30.7 °F 87% 29.84 in 4.0 mi North 27.6 mph 33.4 mph 0.01 in   Overcast
7:15 PM 34.0 °F 20.5 °F 30.7 °F 88% 29.85 in 4.0 mi North 28.8 mph 35.7 mph N/A   Overcast
7:35 PM 34.0 °F 20.1 °F 30.4 °F 87% 29.87 in 3.0 mi North 31.1 mph 34.5 mph N/A   Overcast
7:55 PM 34.0 °F 21.0 °F 30.2 °F 86% 29.89 in 5.0 mi North 26.5 mph 35.7 mph N/A   Overcast
8:15 PM 33.8 °F 21.3 °F 30.2 °F 87% 29.90 in 2.5 mi North 24.2 mph 35.7 mph N/A   Overcast
8:35 PM 33.4 °F 19.8 °F 30.2 °F 88% 29.91 in 2.0 mi North 28.8 mph 40.3 mph N/A   Overcast
8:55 PM 33.1 °F 19.1 °F 29.5 °F 87% 29.92 in 2.0 mi North 29.9 mph 39.1 mph N/A   Overcast
9:15 PM 32.4 °F 16.6 °F 28.2 °F 85% 29.93 in 1.8 mi North 38.0 mph 43.7 mph N/A Snow Light Snow
9:35 PM 31.6 °F 16.0 °F 27.7 °F 85% 29.95 in 1.2 mi North 35.7 mph 42.6 mph N/A Snow Light Snow
9:55 PM 31.1 °F 16.6 °F 26.6 °F 83% 29.97 in 2.0 mi North 28.8 mph 38.0 mph N/A   Scattered Clouds
10:15 PM 30.7 °F 16.4 °F 25.9 °F 82% 29.97 in 2.5 mi North 27.6 mph 40.3 mph N/A   Clear
10:35 PM 30.0 °F 15.2 °F 25.3 °F 83% 29.98 in 4.0 mi North 28.8 mph 36.8 mph N/A   Haze
10:55 PM 29.1 °F 13.7 °F 24.3 °F 82% 29.98 in 3.0 mi North 29.9 mph 35.7 mph N/A   Haze
11:15 PM 28.4 °F 13.5 °F 23.7 °F 83% 29.98 in 7.0 mi North 26.5 mph 33.4 mph N/A   Clear
11:35 PM 28.4 °F 13.0 °F 23.2 °F 81% 29.99 in 4.0 mi North 28.8 mph 35.7 mph N/A   Haze
11:55 PM 28.0 °F 12.8 °F 22.6 °F 80% 30.00 in 3.0 mi North 27.6 mph 35.7 mph N/A   Haze